Tracking 27111 objects as of 28-Mar-2023
HD Live streaming from Space Station
objects crossing your sky now

COSMOS 2491 DEB

Track COSMOS 2491 DEB now!
10-day predictions


NORAD ID: 45030
Int'l Code: 2013-076R
Perigee: 1,310.6 km
Apogee: 1,543.6 km
Inclination: 82.4 °
Period: 114.2 minutes
Semi major axis: 7798 km
RCS: Unknown
Launch date: December 25, 2013
Source: Commonwealth of Independent States (former USSR) (CIS)
Launch site: PLESETSK MISSILE AND SPACE COMPLEX (PKMTR)

Note: This is SATELLITE DEBRIS
Your satellite tracking list
Your tracking list is empty




NASA's NSSDC Master Catalog

Two Line Element Set (TLE):
1 45030U 13076T   23085.90668185 -.00000171  00000-0 -98536-3 0  9995
2 45030  82.4483 157.2759 0149391 290.0312  68.4748 12.60732315146900
Source of the keplerian elements: AFSPC